TimeEST,TemperatureF,Dew PointF,Humidity,Sea Level PressureIn,VisibilityMPH,Wind Direction,Wind SpeedMPH,Gust SpeedMPH,PrecipitationIn,Events,Conditions,WindDirDegrees,DateUTC
12:15 AM,30.2,12.2,47,30.21,10.0,West,9.2,-,N/A,,Overcast,260,2013-12-14 05:15:00
12:35 AM,30.2,12.2,47,30.21,10.0,West,9.2,-,N/A,,Overcast,260,2013-12-14 05:35:00
12:55 AM,32.0,12.2,44,30.22,10.0,WSW,11.5,-,N/A,,Overcast,250,2013-12-14 05:55:00
1:15 AM,32.0,12.2,44,30.22,10.0,West,12.7,-,N/A,,Overcast,270,2013-12-14 06:15:00
1:35 AM,32.0,12.2,44,30.22,10.0,West,11.5,-,N/A,,Overcast,260,2013-12-14 06:35:00
1:55 AM,30.2,19.4,64,30.22,7.0,WSW,11.5,-,N/A,Snow,Light Snow,250,2013-12-14 06:55:00
2:15 AM,28.4,24.8,86,30.21,1.2,WSW,5.8,-,N/A,Snow,Light Snow,240,2013-12-14 07:15:00
2:35 AM,26.6,26.6,100,30.21,1.2,SW,4.6,-,N/A,Snow,Light Snow,220,2013-12-14 07:35:00
2:55 AM,28.4,26.6,93,30.20,1.8,Calm,Calm,-,N/A,Snow,Light Snow,0,2013-12-14 07:55:00
3:15 AM,28.4,28.4,100,30.20,2.5,West,3.5,-,N/A,Snow,Light Snow,280,2013-12-14 08:15:00
3:35 AM,28.4,28.4,100,30.19,1.5,Calm,Calm,-,0.01,Snow,Light Snow,0,2013-12-14 08:35:00
3:55 AM,28.4,28.4,100,30.18,0.8,SSE,3.5,-,N/A,Snow,Snow,160,2013-12-14 08:55:00
4:15 AM,28.4,28.4,100,30.17,2.5,South,4.6,-,0.01,Snow,Light Snow,170,2013-12-14 09:15:00
4:35 AM,30.2,30.2,100,30.17,5.0,SSW,5.8,-,0.01,Snow,Light Snow,210,2013-12-14 09:35:00
4:55 AM,33.8,33.8,100,30.16,3.0,South,6.9,-,0.01,Snow,Light Snow,170,2013-12-14 09:55:00
5:15 AM,28.4,28.4,100,30.14,0.5,Calm,Calm,-,0.02,Snow,Light Snow,0,2013-12-14 10:15:00
5:35 AM,28.4,28.4,100,30.16,0.2,SSE,6.9,-,0.02,Fog,Light Freezing Fog,160,2013-12-14 10:35:00
5:55 AM,28.4,28.4,100,30.14,0.2,SSE,3.5,-,N/A,Fog,Light Freezing Fog,150,2013-12-14 10:55:00
6:15 AM,30.2,30.2,100,30.14,0.2,SSE,6.9,-,0.01,Fog,Light Freezing Fog,150,2013-12-14 11:15:00
6:35 AM,30.2,30.2,100,30.14,0.2,SSE,10.4,16.1,0.01,Fog,Light Freezing Fog,160,2013-12-14 11:35:00
6:55 AM,30.2,30.2,100,30.14,0.8,SSE,8.1,-,N/A,,Overcast,160,2013-12-14 11:55:00
7:15 AM,30.2,30.2,100,30.15,10.0,South,10.4,-,N/A,,Overcast,170,2013-12-14 12:15:00
7:35 AM,28.4,28.4,100,30.15,0.2,SSE,10.4,-,N/A,Fog,Light Freezing Fog,150,2013-12-14 12:35:00
7:55 AM,28.4,28.4,100,30.16,0.2,SSE,9.2,-,N/A,Fog,Light Freezing Fog,160,2013-12-14 12:55:00
8:15 AM,28.4,28.4,100,30.14,10.0,SSE,9.2,-,N/A,,Mostly Cloudy,150,2013-12-14 13:15:00
8:35 AM,28.4,28.4,100,30.15,10.0,SE,10.4,-,N/A,,Scattered Clouds,140,2013-12-14 13:35:00
8:55 AM,28.4,28.4,100,30.15,10.0,SE,9.2,-,N/A,,Scattered Clouds,140,2013-12-14 13:55:00
9:15 AM,28.4,28.4,100,30.14,3.0,SE,10.4,-,N/A,,Mostly Cloudy,130,2013-12-14 14:15:00
9:35 AM,28.4,28.4,100,30.14,10.0,SE,9.2,-,N/A,,Overcast,140,2013-12-14 14:35:00
9:55 AM,28.4,28.4,100,30.13,10.0,SE,10.4,17.3,N/A,,Mostly Cloudy,130,2013-12-14 14:55:00
10:15 AM,28.4,28.4,100,30.12,10.0,SE,11.5,16.1,N/A,,Mostly Cloudy,130,2013-12-14 15:15:00
10:35 AM,28.4,26.6,93,30.11,2.0,SE,12.7,20.7,N/A,Snow,Light Snow,130,2013-12-14 15:35:00
10:55 AM,26.6,26.6,100,30.09,0.2,SE,17.3,20.7,N/A,Snow,Light Snow,130,2013-12-14 15:55:00
11:15 AM,26.6,26.6,100,30.10,0.2,SE,11.5,21.9,N/A,Snow,Snow,140,2013-12-14 16:15:00
11:35 AM,26.6,26.6,100,30.07,0.2,SE,11.5,18.4,N/A,Snow,Snow,130,2013-12-14 16:35:00
11:55 AM,26.6,26.6,100,30.06,0.2,SE,11.5,-,N/A,Snow,Light Snow,130,2013-12-14 16:55:00
12:15 PM,26.6,26.6,100,30.04,0.2,SE,11.5,-,N/A,Snow,Snow,140,2013-12-14 17:15:00
12:35 PM,26.6,26.6,100,30.01,0.2,ESE,12.7,-,0.01,Snow,Light Snow,120,2013-12-14 17:35:00
12:55 PM,26.6,26.6,100,30.01,0.2,ESE,9.2,-,N/A,Snow,Light Snow,120,2013-12-14 17:55:00
1:15 PM,26.6,26.6,100,29.98,0.2,ESE,9.2,-,N/A,Snow,Light Snow,110,2013-12-14 18:15:00
1:35 PM,26.6,26.6,100,29.97,0.2,ESE,9.2,-,0.01,Snow,Light Snow,110,2013-12-14 18:35:00
1:55 PM,26.6,26.6,100,29.96,0.2,East,10.4,-,N/A,Snow,Light Snow,100,2013-12-14 18:55:00
2:15 PM,26.6,26.6,100,29.96,0.2,ESE,9.2,-,0.01,Snow,Light Snow,120,2013-12-14 19:15:00
2:35 PM,28.4,28.4,100,29.94,0.2,ESE,10.4,-,0.01,Snow,Snow,110,2013-12-14 19:35:00
2:55 PM,28.4,28.4,100,29.94,0.2,East,10.4,-,N/A,Snow,Light Snow,100,2013-12-14 19:55:00
3:15 PM,26.6,26.6,100,29.91,0.2,East,10.4,-,N/A,Snow,Light Snow,100,2013-12-14 20:15:00
3:35 PM,26.6,26.6,100,29.90,0.2,ESE,9.2,-,N/A,Snow,Light Snow,110,2013-12-14 20:35:00
3:55 PM,26.6,26.6,100,29.89,0.2,East,10.4,-,N/A,Snow,Light Snow,100,2013-12-14 20:55:00
4:15 PM,26.6,26.6,100,29.89,0.2,East,11.5,-,N/A,Snow,Light Snow,100,2013-12-14 21:15:00
4:35 PM,26.6,26.6,100,29.90,0.2,ESE,6.9,-,N/A,Snow,Light Snow,110,2013-12-14 21:35:00
4:55 PM,28.4,28.4,100,29.91,0.2,SSW,3.5,-,0.01,,Overcast,200,2013-12-14 21:55:00
5:15 PM,28.4,28.4,100,29.88,0.2,SE,6.9,-,0.01,,Overcast,130,2013-12-14 22:15:00
5:35 PM,28.4,28.4,100,29.86,0.2,ESE,8.1,-,0.01,Fog,Light Freezing Fog,120,2013-12-14 22:35:00
5:55 PM,30.2,30.2,100,29.85,0.2,SSE,9.2,18.4,N/A,Fog,Light Freezing Fog,150,2013-12-14 22:55:00
6:15 PM,32.0,32.0,100,29.85,0.2,SSE,13.8,19.6,0.01,Snow,Light Snow,160,2013-12-14 23:15:00
6:35 PM,30.2,30.2,100,29.85,0.2,SSE,9.2,-,0.01,Snow,Light Snow,150,2013-12-14 23:35:00
6:55 PM,32.0,32.0,100,29.84,0.2,SSE,9.2,-,N/A,Snow,Light Snow,160,2013-12-14 23:55:00
7:15 PM,32.0,32.0,100,29.84,0.2,South,9.2,-,0.01,Snow,Light Snow,180,2013-12-15 00:15:00
7:35 PM,33.8,33.8,100,29.84,0.2,South,9.2,-,0.03,Snow,Light Snow,170,2013-12-15 00:35:00
7:55 PM,33.8,33.8,100,29.83,0.2,South,8.1,-,0.01,Snow,Light Snow,190,2013-12-15 00:55:00
8:15 PM,33.8,33.8,100,29.82,0.2,SSW,6.9,-,0.02,Snow,Light Snow,200,2013-12-15 01:15:00
8:35 PM,35.6,35.6,100,29.80,0.5,SSW,9.2,-,0.03,Fog,Fog,200,2013-12-15 01:35:00
8:55 PM,33.8,33.8,100,29.79,0.2,SW,9.2,-,N/A,Fog,Fog,220,2013-12-15 01:55:00
9:15 PM,35.6,35.6,100,29.77,0.2,SW,12.7,16.1,0.01,Snow,Light Snow,230,2013-12-15 02:15:00
9:55 PM,35.6,35.6,100,29.77,0.2,SW,13.8,-,0.01,Snow,Snow,220,2013-12-15 02:55:00
10:15 PM,35.6,35.6,100,29.76,0.2,WSW,16.1,-,0.01,Snow,Snow,240,2013-12-15 03:15:00
10:35 PM,33.8,33.8,100,29.73,0.2,WSW,13.8,-,0.01,Snow,Heavy Snow,240,2013-12-15 03:35:00
10:55 PM,35.6,35.6,100,29.74,0.2,WSW,17.3,-,N/A,Snow,Light Snow,250,2013-12-15 03:55:00
11:15 PM,35.6,35.6,100,29.73,0.2,WSW,16.1,-,N/A,Snow,Light Snow,250,2013-12-15 04:15:00
11:35 PM,35.6,35.6,100,29.74,0.2,WSW,18.4,-,N/A,Snow,Snow,250,2013-12-15 04:35:00
11:55 PM,35.6,35.6,100,29.71,0.2,West,16.1,-,N/A,Snow,Light Snow,260,2013-12-15 04:55:00